User: anonymous   Login
Location: Unspecified
(43.4680°N, 87.1740°E)
Time: 04:25:55
(UTC+00:00)
Language:

Cosmos 1892 - Orbit

View from above orbital plane
View from above orbital plane
View from above satellite
View from above satellite

Ground track
Ground track

The orbit data is extracted from the following two-line orbital elements,

1 18421U 87088A   21171.31188595  .00000494  00000-0  22853-4 0  9990
2 18421  82.5005 269.3362 0013747 223.3279 136.6874 15.17670664840559
Epoch (UTC): 20 June 2021 07:29:06
Eccentricity: 0.0013747
inclination: 82.5005°
perigee height: 503 km
apogee height: 522 km
right ascension of ascending node: 269.3362°
argument of perigee: 223.3279°
revolutions per day: 15.17670664
mean anomaly at epoch: 136.6874°
orbit number at epoch: 84055

The dashed part of the orbit path shows where the satellite is in the earth's shadow,  

DLR